GFSSGP_sfc_rhum_021.txt.gz
RH
58 44 50 38 34 38 45 36 49 29 28 27 26 25 28 27 24 27 43 63 70 83 85 93 91 87 88 90 92 90 87 80 79 77 76 75 75 75 78 84 85 80 74 73 75 76 76 74 71
53 37 37 42 34 39 34 33 30 28 26 31 26 28 30 33 30 47 62 59 79 87 85 93 94 90 90 91 92 90 86 82 78 78 78 78 81 79 76 83 84 80 78 79 77 76 75 70 67
42 32 30 40 40 35 32 26 28 24 26 27 27 28 37 26 35 49 52 58 88 93 90 92 94 92 92 92 93 91 89 86 81 79 78 80 81 82 81 83 84 82 76 80 75 73 71 66 61
34 33 35 31 36 31 44 42 26 28 25 24 28 29 26 33 34 50 60 67 90 94 93 93 94 92 92 93 92 90 87 85 83 80 80 82 82 84 86 86 83 79 78 76 73 72 67 60 55
36 34 34 40 36 28 44 29 28 28 28 28 27 23 22 30 55 70 72 73 87 95 95 95 95 94 93 93 92 91 89 86 85 84 84 82 82 82 82 81 82 80 75 71 70 69 64 58 51
37 34 35 38 40 24 28 26 25 23 23 22 42 39 22 32 51 65 75 76 86 93 95 96 97 97 95 94 93 92 90 89 88 89 87 86 84 82 73 70 70 74 69 62 68 67 62 56 49
39 38 44 54 32 28 27 24 47 29 24 22 38 36 29 29 28 43 74 78 78 88 94 97 98 98 99 98 96 94 92 91 90 89 90 89 89 85 78 80 74 68 67 68 69 66 61 54 46
43 36 54 54 32 28 24 21 24 24 23 20 30 26 27 41 34 52 68 71 76 77 94 96 98 98 98 98 99 97 95 94 94 92 95 95 95 87 85 85 84 74 70 67 70 67 61 55 43
38 35 35 39 29 31 25 24 23 23 24 22 23 41 21 30 47 63 62 56 64 72 88 96 98 99 99 98 99 100 99 98 96 95 97 98 97 91 90 91 86 81 79 74 74 68 63 59 46
36 34 27 29 30 37 29 30 29 24 25 28 24 20 22 24 46 47 46 47 52 60 70 90 97 99 99 98 99 98 98 98 96 94 95 97 97 92 89 93 90 86 84 81 74 68 71 65 51
47 31 33 32 27 32 32 32 32 33 26 27 29 26 27 30 40 43 47 49 48 47 48 51 90 96 99 96 94 97 98 96 99 96 96 96 97 95 94 94 94 96 92 95 89 90 92 62 49
54 38 35 35 34 34 32 33 31 32 25 31 32 33 37 44 47 50 50 50 51 50 48 48 51 94 98 99 99 93 94 96 99 99 97 98 97 97 97 96 95 95 94 94 95 96 91 77 61
42 37 34 32 34 34 34 31 31 26 27 25 35 40 46 48 48 50 50 49 51 51 51 52 56 72 96 99 99 100 94 92 95 96 98 98 98 97 96 96 96 96 94 91 96 95 93 74 57
35 37 32 30 29 30 30 33 34 23 25 26 37 49 53 53 54 53 52 51 50 49 52 54 60 66 87 98 99 99 96 90 96 98 98 97 97 98 96 97 96 96 92 93 97 96 93 72 60
35 34 30 26 30 28 31 34 30 25 25 30 48 58 56 56 56 59 57 56 54 52 53 57 60 79 88 96 98 99 99 99 100 99 98 96 96 96 95 96 97 95 94 93 91 93 82 69 59
37 38 38 30 35 34 29 33 25 24 28 36 54 63 59 58 58 60 58 58 57 56 55 55 58 79 95 96 97 98 98 98 98 98 98 97 98 96 96 96 96 95 95 93 90 85 84 74 65
44 36 45 35 33 34 31 33 26 28 29 45 59 60 56 59 59 59 60 62 60 61 58 56 58 67 88 94 95 96 95 92 94 96 97 97 96 96 96 97 97 96 96 93 88 79 72 77 69
38 48 43 40 35 34 36 32 29 28 31 44 62 63 62 62 62 58 58 59 61 62 58 58 56 58 72 84 74 74 78 80 74 75 82 88 95 93 95 96 96 97 97 94 89 79 69 66 68
37 44 43 41 35 40 38 40 34 35 41 54 65 64 64 63 58 55 56 59 60 61 60 60 60 60 61 82 93 81 90 71 63 60 65 71 80 90 89 90 91 93 96 93 86 74 68 65 58
47 49 44 42 39 39 40 38 34 40 48 48 64 66 64 62 59 55 56 58 62 63 62 60 60 62 62 63 74 79 78 71 63 63 62 62 62 75 77 81 80 83 84 80 79 69 70 65 61
50 49 52 45 43 46 48 48 40 56 60 62 65 64 63 63 64 63 58 62 63 62 66 60 59 60 64 62 63 67 67 70 67 68 68 67 64 64 70 72 82 84 78 78 76 69 65 71 66
53 46 44 47 53 61 57 61 49 48 64 69 71 72 70 68 66 64 63 61 62 62 58 57 55 56 56 63 64 68 73 74 79 75 67 63 60 63 70 70 72 76 80 78 81 67 67 65 69
49 50 52 49 56 65 56 59 50 53 64 72 77 73 72 71 67 66 66 60 60 59 62 59 50 50 50 52 55 51 54 60 54 56 50 55 52 54 60 66 69 74 77 82 84 83 77 70 68
45 45 55 69 62 75 52 51 60 53 52 71 73 72 70 70 67 64 60 56 58 58 59 60 49 52 49 46 48 49 50 48 50 54 55 56 56 54 59 60 64 62 66 74 82 88 89 89 78
45 53 71 79 84 78 69 70 50 58 62 62 68 74 73 70 69 64 59 59 56 56 57 55 56 59 57 51 49 49 52 52 54 60 63 61 60 61 60 65 65 63 65 65 70 80 84 89 90
50 51 74 79 87 75 77 77 58 70 75 66 64 69 70 68 65 65 60 59 56 54 57 59 60 62 62 61 64 60 57 57 61 62 64 68 69 69 68 64 67 65 66 65 67 77 77 83 86
53 59 60 76 97 93 73 71 66 71 74 77 77 73 72 69 68 65 63 60 56 53 51 53 58 61 64 65 67 69 67 65 65 66 69 70 70 56 67 68 68 65 62 65 71 78 75 79 81
56 57 73 83 89 98 80 74 65 71 73 74 73 70 70 69 70 66 63 61 57 56 55 51 49 55 62 64 65 65 64 66 66 67 68 68 70 70 71 71 70 71 71 72 73 70 68 77 73
66 74 75 70 78 84 88 60 60 61 66 69 67 65 66 62 63 69 64 59 58 57 56 54 51 50 52 54 59 63 62 59 60 61 67 70 69 72 71 72 72 70 70 70 78 77 74 72 70
73 67 69 77 78 91 82 63 63 61 59 61 62 60 62 60 57 57 63 56 56 55 56 56 56 56 55 55 55 56 56 57 58 60 64 71 69 72 71 72 70 68 66 68 73 69 68 69 66

GFSSGP_sfc_rhum_024.txt.gz
RH
55 46 45 35 30 39 46 41 50 28 37 30 28 27 42 37 24 28 38 61 75 88 86 94 92 87 87 89 92 90 87 81 78 76 75 76 76 76 78 83 84 78 74 72 71 77 76 72 70
50 38 33 38 34 38 35 40 31 32 28 40 29 28 30 33 30 39 60 64 80 87 92 95 94 90 90 92 93 90 86 82 78 77 76 77 79 76 79 84 83 79 77 78 75 76 72 69 66
43 31 29 36 42 34 34 36 49 27 29 28 47 34 47 26 32 57 60 64 89 91 94 96 95 92 91 89 92 91 88 85 79 78 78 80 80 81 79 83 84 82 77 79 76 74 70 65 60
35 29 33 27 44 39 45 48 28 34 26 26 33 44 27 36 34 56 72 75 90 94 95 96 94 92 91 90 91 90 86 84 82 80 79 80 82 83 85 85 84 80 79 78 75 73 67 62 55
35 33 34 39 42 32 38 40 32 29 48 30 34 30 29 28 62 71 75 77 85 94 95 95 95 94 92 91 90 91 88 86 85 82 82 84 84 85 86 85 80 78 75 70 75 71 66 59 52
35 33 33 37 46 28 38 29 29 24 24 29 45 41 26 33 56 65 76 77 87 93 96 95 98 97 95 92 92 92 91 89 88 88 87 85 85 83 78 77 77 72 70 61 63 69 65 58 49
38 36 40 50 43 35 29 26 47 46 42 36 40 44 33 42 30 45 73 75 75 90 95 96 97 99 99 98 96 95 93 92 91 90 88 89 89 87 80 80 76 67 68 63 63 68 64 57 47
42 36 54 55 32 29 31 24 26 38 24 21 32 31 44 36 38 47 56 65 72 80 92 95 98 97 95 99 100 99 97 95 93 93 94 95 94 91 85 86 83 73 70 66 64 68 64 59 47
37 30 33 42 29 33 29 27 25 27 38 25 23 46 26 27 44 47 52 48 53 57 77 91 97 96 92 88 98 99 99 97 95 94 96 94 96 92 87 90 87 82 79 72 73 69 65 67 58
33 28 23 30 47 51 32 36 31 29 28 43 27 27 30 37 41 42 47 48 48 48 52 56 85 98 97 95 94 99 96 99 97 95 94 94 96 96 91 92 90 88 86 81 76 70 76 68 48
52 26 32 33 30 34 34 35 34 49 31 30 31 32 36 46 49 51 52 54 54 54 50 50 52 66 98 94 97 99 99 99 99 95 92 93 97 96 96 95 94 95 92 93 89 94 93 68 54
54 40 35 36 36 37 36 34 36 34 32 34 41 44 50 50 51 54 54 53 54 53 52 53 58 62 88 94 89 98 99 99 99 99 97 98 99 99 98 97 97 97 96 93 92 94 92 81 62
52 41 37 36 36 36 36 35 34 29 32 38 43 47 52 54 55 55 55 53 54 55 56 59 64 73 74 99 98 98 97 96 98 98 97 98 99 99 98 98 98 98 96 93 93 95 94 87 62
37 38 33 31 33 33 32 35 38 32 30 39 48 57 59 58 60 59 58 58 57 56 58 59 66 77 94 97 99 96 95 95 94 96 96 97 98 98 98 98 98 98 97 95 93 92 95 89 64
37 35 31 29 32 29 33 34 33 30 30 44 55 61 59 60 60 64 64 63 63 61 60 61 63 82 98 99 99 99 99 98 99 99 98 98 97 97 97 98 98 98 97 95 94 92 83 76 65
37 37 40 30 36 36 32 33 30 29 29 46 58 64 60 60 62 63 63 64 63 64 63 61 60 76 94 98 98 98 96 95 97 98 97 97 98 98 97 98 98 97 97 97 96 93 86 78 66
42 48 43 34 35 36 32 33 32 32 34 51 63 62 59 62 60 61 62 66 66 67 64 62 62 67 80 78 81 81 74 73 76 81 86 91 92 95 97 97 97 96 97 95 92 88 82 81 73
46 47 43 42 38 38 40 32 28 31 33 50 66 67 66 64 63 60 61 62 65 68 64 62 62 64 72 77 66 64 59 61 60 63 64 69 77 83 89 92 94 97 98 97 96 92 87 74 66
37 44 42 43 38 45 38 40 34 36 47 66 69 67 67 64 60 58 58 63 65 64 63 64 65 67 66 81 93 63 69 60 64 64 64 58 62 68 78 79 79 85 88 90 88 85 79 77 62
45 47 44 41 42 42 44 44 38 45 54 56 66 68 66 63 60 58 60 62 64 67 68 64 66 68 66 70 76 78 76 67 62 63 57 59 64 69 61 72 78 79 78 84 86 80 82 73 62
50 48 53 41 48 52 61 52 45 63 68 67 66 66 63 62 62 62 60 64 64 64 68 62 63 67 68 68 68 71 71 70 60 57 49 50 51 59 70 69 72 74 74 82 84 74 74 77 72
49 46 45 50 59 67 59 66 51 55 72 75 72 71 71 69 67 62 60 61 61 61 60 57 53 54 56 56 52 52 54 52 69 62 58 50 52 54 57 56 59 68 72 77 80 80 84 79 82
49 55 55 60 64 67 59 65 51 56 62 78 79 74 75 75 70 65 62 57 57 58 60 56 50 47 48 50 44 44 49 56 61 60 49 56 52 56 59 61 58 59 60 64 69 79 85 87 88
47 51 58 72 62 77 54 52 61 57 54 74 78 74 72 72 70 70 62 55 55 55 56 56 48 49 47 45 45 44 47 49 49 55 56 61 63 58 61 62 65 62 62 64 69 68 72 76 84
48 54 72 80 85 79 69 67 53 58 64 66 70 76 76 72 70 65 59 54 54 55 55 51 54 55 54 48 49 51 54 54 57 62 65 65 66 70 66 67 67 67 68 67 68 69 74 73 73
52 54 77 79 87 78 78 78 56 71 76 75 67 72 75 74 66 62 59 56 53 56 58 58 59 60 61 60 61 60 60 60 64 64 68 72 72 72 69 68 67 66 65 65 68 73 70 71 74
54 59 59 75 98 94 74 70 68 74 79 83 82 77 78 74 71 66 61 60 54 55 57 58 60 62 62 63 65 66 62 61 63 65 66 70 69 57 67 68 67 68 68 68 70 75 74 77 75
54 54 68 82 81 98 79 78 67 65 70 84 83 80 77 73 71 69 68 62 56 49 47 50 55 60 62 62 60 60 63 62 62 62 64 64 64 67 67 69 69 68 69 70 75 74 73 74 71
73 75 76 68 80 85 89 68 59 61 71 79 78 73 75 73 72 72 69 66 60 57 56 51 52 56 58 62 65 60 60 61 61 61 66 67 66 71 70 72 71 70 70 70 74 74 68 72 73
73 68 70 72 79 91 87 66 69 71 67 69 72 69 69 68 68 71 70 66 63 60 58 55 53 53 54 57 60 57 58 58 60 62 64 69 69 72 73 74 71 71 70 71 74 68 73 76 68

GFSSGP_sfc_rhum_030.txt.gz
RH
33 23 19 18 18 16 20 19 16 17 15 15 16 15 13 14 15 18 28 34 45 48 55 69 88 88 89 90 89 88 86 81 80 79 76 76 76 76 80 80 80 76 72 74 74 71 70 68 65
21 20 17 17 15 14 16 16 17 16 15 15 16 14 13 16 16 22 28 37 46 48 54 60 92 89 89 90 90 88 85 80 77 75 75 75 76 81 82 80 81 79 75 76 76 72 68 63 60
22 16 16 17 17 13 16 16 14 16 16 15 14 15 14 16 20 24 38 39 50 50 54 61 93 90 91 92 91 88 86 83 78 77 77 78 76 79 84 82 81 78 74 71 75 74 69 62 58
19 15 15 12 16 16 13 13 14 16 15 15 14 13 13 20 24 32 42 47 48 52 55 77 93 92 91 92 90 86 84 82 80 78 78 80 80 79 83 82 80 77 70 73 71 75 69 59 57
15 16 16 18 18 15 14 15 15 15 13 12 14 12 15 19 29 36 41 46 46 54 59 65 94 94 91 90 83 88 86 83 82 80 79 82 82 84 84 81 78 72 69 68 70 72 68 56 59
16 16 15 16 16 16 15 15 13 11 11 13 11 11 16 21 24 38 41 44 51 58 67 65 90 98 93 91 88 86 87 89 87 85 82 83 84 83 82 78 72 71 67 68 71 72 66 54 58
18 18 19 18 16 17 15 14 12 11 12 13 13 12 15 15 26 38 40 42 45 58 68 69 68 81 100 98 95 90 86 87 86 84 86 87 88 86 80 77 74 71 70 69 73 72 67 55 57
17 17 21 18 17 17 15 13 13 13 13 13 13 12 14 19 25 31 26 26 27 33 39 46 69 81 82 76 99 98 92 91 90 90 91 93 95 91 83 84 79 74 72 72 76 72 70 60 59
18 12 17 19 19 16 16 14 14 15 13 14 15 17 24 25 24 25 26 24 27 27 30 33 40 59 79 78 82 96 99 98 95 90 93 91 65 69 72 81 84 81 80 77 76 76 73 58 46
15 14 14 16 14 15 16 16 16 15 15 14 17 22 24 24 24 25 26 26 28 30 32 33 36 38 53 78 83 86 87 70 68 64 62 64 61 62 71 84 89 86 85 83 78 78 74 58 28
22 13 14 17 16 17 19 19 17 16 17 16 17 20 26 26 26 27 28 31 33 33 33 38 42 44 42 59 73 80 89 90 68 66 63 67 88 86 88 87 83 82 88 78 76 72 56 56 39
19 22 19 24 24 22 21 19 19 19 19 24 25 27 28 28 30 32 33 34 37 38 41 45 47 51 51 43 71 81 87 87 85 72 74 69 79 92 93 88 90 94 88 85 83 79 71 58 48
24 24 24 24 25 24 24 22 19 19 25 27 29 30 30 30 33 35 36 37 42 45 48 51 56 61 58 53 72 85 88 89 90 85 88 90 88 88 84 88 89 87 83 75 84 82 80 70 55
22 24 21 21 21 22 24 20 22 21 26 28 28 29 30 34 35 34 37 39 44 50 53 58 66 73 54 53 82 91 92 92 92 93 92 94 91 92 91 92 88 89 88 86 85 87 83 78 69
24 21 19 18 20 20 22 24 22 21 26 28 30 31 34 35 33 37 40 42 46 49 56 65 70 84 78 87 94 93 90 88 92 91 86 90 92 92 94 96 97 97 95 94 90 85 77 72 59
23 23 25 21 23 24 23 20 20 22 24 26 30 30 33 36 36 38 40 42 44 49 58 67 74 77 76 76 79 76 76 75 78 81 77 79 82 83 89 93 96 94 93 95 93 89 87 81 67
26 24 27 24 22 23 24 22 22 21 21 25 27 30 32 33 34 37 39 41 45 48 55 65 71 72 73 71 66 65 62 62 61 59 60 68 70 72 81 86 89 89 90 91 91 84 86 87 78
28 28 28 26 22 25 24 22 21 22 22 23 27 32 32 34 38 39 39 43 46 49 52 60 64 66 65 66 62 58 56 51 50 53 55 55 60 63 65 71 70 69 69 69 72 72 70 58 54
26 26 26 23 24 26 24 24 19 20 23 26 30 32 33 36 38 37 40 42 46 49 51 54 58 59 58 59 60 56 50 46 46 46 48 46 48 50 50 51 53 54 59 60 56 58 58 54 51
28 28 27 26 26 27 24 25 20 22 24 25 28 33 34 36 36 38 38 40 44 47 49 50 51 52 49 48 47 43 39 35 34 37 35 34 40 42 42 47 48 49 50 53 58 60 58 58 52
30 30 27 27 31 31 32 29 28 29 40 42 36 34 34 34 34 36 38 38 40 45 47 47 47 48 44 41 38 36 33 33 32 31 31 30 29 33 39 34 36 37 38 41 47 49 57 56 56
32 28 29 32 32 37 35 36 33 29 36 45 46 40 36 37 36 36 36 35 39 40 42 43 44 42 40 38 36 35 34 34 30 28 30 31 31 32 33 33 33 35 32 33 34 30 34 38 42
35 35 33 35 38 42 38 40 32 37 33 41 44 41 38 37 36 36 36 37 34 38 40 38 37 36 34 31 30 29 30 30 28 28 28 28 31 34 35 34 33 34 32 36 35 34 33 31 30
43 41 41 42 44 55 44 40 32 28 28 36 42 42 40 39 38 36 36 35 33 36 37 36 32 31 30 29 27 28 30 28 29 28 28 29 29 32 35 36 37 35 34 36 36 38 39 35 31
37 39 52 59 61 58 46 47 30 27 34 36 43 43 42 41 38 36 35 32 30 32 33 31 27 28 26 26 26 26 26 26 27 26 28 30 32 32 35 33 34 36 36 35 36 40 41 39 37
40 37 51 77 65 48 61 52 35 44 48 50 46 42 43 43 40 38 32 31 30 32 29 27 26 27 25 26 29 29 27 24 27 29 30 31 32 35 35 34 34 34 35 33 33 38 42 44 42
43 47 41 61 86 69 41 41 36 53 50 52 52 50 47 45 44 39 33 29 28 30 30 28 27 28 28 29 29 31 29 29 30 32 32 33 35 34 36 35 34 33 35 36 34 40 44 44 44
39 38 54 51 84 79 44 45 34 50 44 52 58 55 49 46 44 39 33 30 29 29 30 28 27 28 31 32 30 30 31 32 32 32 34 35 37 36 34 33 33 33 34 34 36 40 42 41 42
48 44 48 43 51 67 57 38 34 35 37 44 44 50 48 46 44 40 35 32 31 32 34 31 31 31 35 35 33 37 36 33 33 33 35 35 36 34 35 35 35 35 35 37 37 40 41 46 48
39 40 43 52 71 58 65 46 43 41 36 41 40 48 46 44 42 40 37 38 35 34 35 34 32 33 33 34 35 36 34 35 34 34 35 38 36 37 37 35 35 35 36 38 39 41 46 47 45

GFSSGP_sfc_rhum_033.txt.gz
RH
34 15 15 18 19 12 15 16 11 12 12 13 12 11 11 12 14 22 26 34 37 40 50 69 87 87 89 89 87 86 85 81 79 77 78 78 77 77 81 79 78 75 74 74 72 69 66 63 64
16 14 16 14 14 12 13 11 14 12 12 12 12 11 10 14 14 21 25 32 38 39 46 57 90 88 90 90 89 87 84 80 77 75 74 74 78 82 80 80 80 77 75 75 76 72 66 62 60
20 13 16 14 12 11 13 12 12 12 12 12 11 11 11 15 17 20 33 34 38 41 46 59 91 86 87 88 88 86 84 80 76 75 75 74 76 82 82 80 79 76 73 73 74 74 66 60 58
16 14 11 12 13 13 10 10 12 12 12 12 11 12 14 22 25 30 36 35 36 42 46 84 92 87 87 90 87 84 84 81 79 77 78 78 76 78 81 81 77 72 71 71 71 73 64 58 61
12 13 13 13 14 10 11 11 12 12 10 10 10 11 17 22 28 30 31 34 36 44 47 64 93 89 87 86 88 87 84 82 80 79 79 81 80 82 83 78 75 71 71 72 73 72 63 58 62
14 13 12 14 11 11 11 11 10 9 8 8 9 9 19 22 25 35 33 40 40 50 57 57 90 96 94 87 84 83 85 85 84 83 80 83 82 82 80 76 73 71 72 74 72 71 63 57 61
16 14 12 11 12 12 12 11 10 9 9 11 10 10 16 18 24 33 32 32 39 52 58 59 59 76 100 99 92 89 85 84 84 82 83 86 85 85 78 80 75 72 72 75 74 72 66 58 60
12 11 14 11 12 14 12 11 11 10 11 11 11 11 15 20 21 28 24 25 27 35 41 47 62 71 71 66 99 100 98 90 86 87 89 93 93 88 83 82 81 75 73 77 75 73 68 57 53
14 11 12 12 12 12 12 12 12 12 11 12 14 15 20 19 20 23 25 23 25 26 28 32 38 48 66 70 76 95 98 100 94 89 93 91 66 71 73 86 86 83 80 77 76 75 68 52 47
14 13 10 11 10 12 13 12 12 12 12 12 16 19 19 18 20 22 22 22 24 27 28 29 33 38 44 63 69 74 66 65 64 63 62 67 63 62 69 79 90 86 87 82 78 76 68 60 36
14 11 11 13 12 12 14 14 13 12 14 12 13 18 20 20 21 22 22 26 29 29 30 34 37 38 38 48 68 68 74 76 66 62 64 65 72 71 75 83 84 80 86 74 76 74 66 58 47
15 14 13 18 19 18 17 15 15 14 16 18 18 19 20 21 24 27 29 30 33 34 37 41 44 44 44 40 61 74 82 79 69 68 71 69 80 84 90 88 88 81 84 84 82 77 75 64 52
18 17 19 19 21 19 20 18 16 15 20 20 22 23 23 24 27 28 28 31 36 42 46 51 56 58 51 46 62 86 89 82 79 81 81 80 80 78 82 92 86 91 85 80 77 73 73 75 63
18 20 17 17 18 18 21 17 18 14 20 21 21 22 24 26 27 28 31 34 40 47 55 61 68 73 45 49 92 94 92 90 88 87 86 88 88 93 95 95 97 97 91 84 85 85 80 74 68
20 19 15 16 17 18 20 21 22 14 21 21 20 22 25 26 25 30 33 36 42 48 62 70 75 74 81 82 86 89 85 85 89 86 82 85 88 89 92 95 97 98 96 94 93 90 81 72 65
19 20 21 19 19 21 21 20 16 19 20 21 21 21 26 29 27 31 34 36 41 52 64 71 72 75 75 75 74 69 69 69 72 74 72 74 78 82 86 88 92 93 95 95 94 92 90 89 86
21 21 22 21 18 21 22 20 20 19 19 20 20 22 24 27 27 31 34 37 44 53 62 72 72 74 72 70 66 65 63 61 62 62 63 64 67 72 76 81 83 82 84 88 87 76 80 74 59
22 24 21 23 20 22 22 21 19 19 18 18 19 22 25 26 29 32 34 40 46 54 61 66 68 68 66 63 60 58 58 56 51 50 49 51 56 57 61 61 63 62 62 60 64 64 58 56 55
20 23 23 19 20 23 22 20 17 18 19 18 18 22 25 27 29 31 36 41 48 54 58 62 65 64 60 61 58 57 56 49 47 46 46 44 46 48 50 51 50 52 57 57 56 57 58 59 56
24 25 25 21 21 25 22 22 19 16 19 18 17 21 25 28 29 32 35 42 45 53 56 56 56 56 52 49 46 43 41 40 37 37 34 34 39 38 38 43 45 43 45 48 52 57 57 58 56
26 27 26 25 27 25 25 28 26 20 18 18 22 20 24 28 28 32 36 41 46 52 53 52 51 48 46 43 40 39 38 37 35 34 31 30 28 32 41 35 36 36 34 37 40 40 46 48 51
30 22 26 27 30 37 28 37 26 24 29 31 32 28 27 28 28 29 34 38 45 48 48 47 47 45 41 39 40 39 38 37 32 30 31 31 30 30 33 35 34 39 37 37 39 32 36 41 43
29 29 30 32 37 39 36 41 30 25 27 30 33 34 30 30 30 32 33 36 37 45 48 45 43 40 36 35 34 35 35 33 28 28 29 30 32 34 34 34 36 38 38 42 40 40 39 35 36
33 36 36 38 42 59 46 41 32 28 30 26 32 34 32 32 31 31 34 34 37 42 42 42 38 35 33 31 29 31 35 30 31 30 29 28 29 31 34 36 40 36 35 38 40 45 45 43 38
35 41 54 59 63 60 39 44 33 24 29 26 34 35 33 33 32 33 35 32 34 38 39 35 32 30 28 27 27 29 27 27 28 27 28 31 31 32 34 32 34 34 34 33 37 44 45 43 43
42 40 54 76 62 48 51 49 32 28 32 36 30 33 34 35 34 34 32 32 33 36 34 29 28 27 26 26 26 26 25 22 24 26 29 31 32 34 34 33 32 33 32 30 33 45 48 51 51
42 47 38 58 88 67 39 34 27 44 42 40 38 37 38 38 36 35 31 29 31 32 30 28 26 25 25 26 26 27 24 25 27 30 31 33 36 33 34 34 33 32 35 37 35 49 53 54 53
37 33 56 51 91 77 37 35 35 51 40 41 46 44 40 38 36 35 31 29 29 29 29 25 23 25 27 27 26 27 27 28 30 31 36 35 36 36 36 35 34 34 36 38 41 50 52 50 54
45 44 42 39 47 63 56 36 24 28 30 37 42 44 40 39 38 36 32 29 29 30 31 27 25 26 30 30 29 34 35 30 31 36 37 38 39 36 37 38 38 38 37 40 42 44 46 50 53
33 37 38 53 67 54 52 46 32 25 25 35 36 41 39 40 38 37 34 30 30 33 34 32 29 31 34 30 30 38 33 35 36 34 36 42 40 40 39 37 37 37 36 38 39 42 47 49 47